TIME,DELAY(SENSOR),PRES,T(CTD),SAL,OXYGEN,RAWTEMP,T(OPTODE),TCPHASE,FLUOR,BETA(BETA700),BETA(BETA412),BETA(BETA440),CDOM,C(CSC),ED(ED411.90),ED(ED443.80),ED(ED489.40),ED(ED554.70),LU(LU412.20),LU(LU443.80),LU(LU489.40),LU(LU555.00),COMP,TILTX,TILTX(TILTY),CHECK
1350573805,5804,497.5700073242187500,17.1198005676269530,36.3881988525390600,223.7359924316406200,184.5296936035156200,17.1147308349609380,31.6923007965087900,51,99,68,58,48,13663,2146957129,2147512914,2147268864,2147466550,2147084242,2146955245,2147654784,2147124809,2046,-1,8,20185
1350573934,5807,486.1199951171875000,17.2290000915527340,36.4109001159668000,225.6475982666015600,180.7781982421875000,17.2278594970703120,31.5428390502929700,51,101,69,57,49,13663,2146958482,2147513307,2147269211,2147463277,2147085714,2146952438,2147655314,2147124891,818,-1,8,63346
1350574061,5806,474.8599853515625000,17.3115005493164060,36.4267005920410160,227.0061950683593800,178.1078033447265600,17.3083992004394530,31.4374809265136720,50,101,68,57,49,13664,2146957165,2147516187,2147266998,2147467346,2147086400,2146953078,2147654829,2147124022,2918,-1,8,11261
1350574176,5802,464.8099975585937500,17.3847999572753900,36.4410018920898440,228.1529998779297000,175.4860992431640600,17.3874893188476560,31.3436203002929700,50,100,67,57,48,13664,2146957147,2147514688,2147265554,2147465664,2147086006,2146955446,2147659328,2147124717,1504,-1,8,19620
1350574305,5804,453.6600036621094000,17.4848995208740230,36.4597015380859400,229.7086944580078000,172.2720031738281200,17.4844608306884770,31.2222690582275400,50,99,68,59,48,13663,2146954715,2147515556,2147267748,2147467629,2147085037,2146958317,2147655817,2147121234,3394,-1,8,10000
1350574432,5806,442.4899902343750000,17.5529994964599600,36.4743003845214840,230.9311981201172000,169.9705963134765600,17.5538902282714840,31.1306400299072270,50,100,68,57,48,13664,2146957357,2147513252,2147267894,2147467776,2147082093,2146955666,2147653494,2147120850,2015,-2,8,60423
1350574561,5807,431.2099914550781000,17.6392993927001950,36.4892997741699200,232.0242004394531200,167.2709960937500000,17.6353607177734380,31.0402202606201170,50,100,68,58,48,13662,2146957906,2147511478,2147263369,2147462857,2147083849,2146956315,2147652772,2147124178,368,-2,8,59957
1350574688,5802,420.2799987792969000,17.7019996643066400,36.4994010925293000,232.2776031494140600,165.1647949218750000,17.6989307403564450,30.9992809295654300,50,100,68,59,49,13661,2146954304,2147512064,2147261924,2147461915,2147083099,2146956544,2147652160,2147118299,2179,-1,8,7705
1350574815,5807,409.5400085449219000,17.7954006195068360,36.5176010131835940,233.5704956054687500,162.1855926513672000,17.7888507843017580,30.8960704803466800,51,102,68,58,48,13660,2146957357,2147513664,2147265517,2147464009,2147081664,2146957293,2147656146,2147122742,627,-1,8,12358
1350574944,5805,398.5499877929687500,17.8568992614746100,36.5290985107421900,235.0525054931640600,159.7978973388672000,17.8609409332275400,30.7921009063720700,51,102,68,58,49,13661,2146952630,2147512905,2147263734,2147460086,2147082870,2146954596,2147653824,2147124836,2801,-1,8,52258
1350575071,5804,387.7300109863281000,17.9181995391845700,36.5390014648437500,235.7472991943359400,158.0910949707031200,17.9124698638916000,30.7358608245849600,50,102,69,59,47,13660,2146954331,2147510793,2147265280,2147460717,2147085440,2146953453,2147658852,2147127506,1189,-1,8,27492
1350575200,5805,376.8800048828125000,17.9454002380371100,36.5423011779785160,235.4882049560547000,157.2109985351562500,17.9390392303466800,30.7366790771484380,50,103,67,59,48,13660,2146958317,2147511040,2147264109,2147460315,2147085357,2146958080,2147652909,2147122880,3239,-1,9,33580
1350575327,5810,366.0700073242187500,18.0091991424560550,36.5528984069824200,235.6759948730468800,154.9846038818359400,18.0062808990478500,30.6977806091308600,50,101,67,58,48,13660,2146956928,2147515282,2147265188,2147459693,2147087305,2146958802,2147654016,2147124388,1728,-1,8,3744
1350575454,5806,355.2200012207031000,18.0473995208740230,36.5578002929687500,235.4322052001953000,153.7509002685547000,18.0435390472412100,30.6930999755859380,50,101,68,58,49,13659,2146952850,2147513097,2147263268,2147462948,2147083264,2146959076,2147651190,2147119533,39,-1,8,47239
1350575583,5808,344.2999877929687500,18.0844993591308600,36.5624008178710940,235.1678924560547000,152.5332031250000000,18.0803203582763670,30.6893405914306640,51,101,70,58,47,13658,2146955766,2147513206,2147265298,2147459876,2147085531,2146961819,2147652397,2147122998,1801,-1,9,63333
1350575710,5807,333.7500000000000000,18.1518001556396500,36.5708007812500000,234.8134002685547000,150.2622070312500000,18.1489200592041000,30.6763591766357420,50,101,69,57,47,13657,2146953280,2147513005,2147265097,2147461888,2147084717,2146963273,2147652928,2147122340,939,-1,9,38206
1350575851,5806,322.4500122070312500,18.2266006469726560,36.5796012878418000,234.1132965087890600,147.9158020019531200,18.2198104858398440,30.6787300109863280,50,102,68,57,48,13658,2146951177,2147514157,2147266148,2147456118,2147083995,2146959990,2147654546,2147128713,2797,-1,9,40389
1350575990,5807,311.5899963378906000,18.2796001434326170,36.5839996337890600,233.2879028320312500,146.0930938720703000,18.2748794555664060,30.6943397521972660,50,102,68,56,47,13657,2146953947,2147509494,2147263286,2147458029,2147085979,2146962962,2147656640,2147127177,1393,-1,9,5258
1350576150,5803,298.7699890136719000,18.3579998016357420,36.5906982421875000,231.5164947509765600,143.2498931884765600,18.3608093261718750,30.7428398132324220,51,101,68,58,49,13656,2146957174,2147511753,2147264310,2147459666,2147087442,2146961709,2147659465,2147126464,3117,-1,8,36372
1350576266,5808,287.4400024414062500,18.4797000885009770,36.6006011962890600,229.8762054443359400,139.4503021240234400,18.4756603240966800,30.7724494934082030,51,101,68,57,48,13656,2146951771,2147513389,2147264896,2147455981,2147085714,2146964553,2147661513,2147127625,1718,-1,8,61036
1350576381,5807,275.8900146484375000,18.5400009155273440,36.6040992736816400,228.4167022705078000,137.3435974121093800,18.5393600463867200,30.8163795471191400,51,100,68,58,48,13658,2146955547,2147511762,2147263597,2147458514,2147087652,2146970468,2147665243,2147128795,348,-2,8,6107
1350576486,5806,265.3999938964844000,18.6443004608154300,36.6128005981445300,227.0428924560547000,134.1298980712890600,18.6365509033203120,30.8422203063964840,51,100,69,58,49,13657,2146954797,2147515465,2147264905,2147457609,2147085851,2146969673,2147670875,2147124251,2152,-1,8,49932
1350576601,5805,254.0299987792968800,18.6947002410888670,36.6053009033203100,227.7333984375000000,132.2729034423828000,18.6927108764648440,30.7827606201171880,50,101,68,58,48,13658,2146954870,2147514605,2147263972,2147456777,2147086025,2146973449,2147684809,2147129106,1062,-2,9,63275
1350576716,5804,242.8800048828125000,18.8356990814209000,36.6078987121582000,228.2227020263672000,127.7601013183593800,18.8292503356933600,30.6985893249511720,50,101,70,58,48,13659,2146951597,2147514075,2147265846,2147454921,2147085449,2146977060,2147691154,2147127625,2948,-1,8,63096
1350576833,5808,231.7799987792968800,18.9762992858886720,36.6032981872558600,230.4732055664062500,123.0927963256836000,18.9705200195312500,30.5257205963134770,51,100,68,58,47,13657,2146953627,2147512045,2147268836,2147454153,2147083968,2146989266,2147709449,2147132342,1884,-1,8,51209
1350576948,5806,221.3099975585937500,19.0797004699707030,36.6001014709472660,234.0527038574218800,119.1605987548828100,19.0895805358886720,30.3006706237792970,50,100,69,58,48,13657,2146951341,2147515803,2147267072,2147455332,2147086290,2147000960,2147735021,2147132717,1135,-1,8,53862
1350577077,5804,209.9400024414062500,19.1641998291015620,36.5966987609863300,224.9411010742187500,116.8898010253906200,19.1583499908447270,30.7178592681884770,51,104,70,58,48,13656,2146953206,2147515675,2147268470,2147455661,2147089252,2147023012,2147767259,2147134244,2907,-2,8,21578
1350577204,5806,199.0500030517578000,19.2322998046875000,36.5824012756347660,237.3885040283203000,114.5411987304687500,19.2294998168945300,30.0813598632812500,50,101,69,57,48,13655,2146953883,2147512960,2147266560,2147455533,2147090157,2147045741,2147815460,2147136310,1644,-1,9,2068
1350577259,5804,194.5299987792968800,19.3045997619628900,36.5924987792968750,238.4364013671875000,111.5969009399414000,19.3187198638916000,29.9935207366943360,51,104,68,59,48,13657,2146955373,2147514139,2147268443,2147450377,2147082651,2147053540,2147833627,2147136822,1162,-2,8,26585
1350577314,5805,190.0200042724609400,19.3950004577636720,36.5984992980957000,236.8271026611328000,109.3261032104492200,19.3875408172607420,30.0397300720214840,51,101,69,57,48,13656,2146953234,2147516388,2147268635,2147452580,2147095588,2147066916,2147858560,2147139721,657,-2,8,17428
1350577369,5803,185.5599975585937500,19.4451007843017580,36.6054000854492200,234.6737060546875000,107.5578994750976600,19.4411506652832030,30.1185493469238280,52,102,70,58,48,13655,2146952164,2147516096,2147270710,2147447597,2147089490,2147079990,2147887762,2147144713,3369,-1,9,30694
1350577445,5806,179.8500061035156200,19.5034999847412100,36.6100006103515600,235.2821044921875000,105.7273025512695300,19.4966506958007800,30.0654907226562500,52,103,67,58,48,13656,2146956672,2147515849,2147271872,2147452708,2147097234,2147105462,2147923830,2147146998,2491,-1,9,27385
1350577500,5804,175.9900054931640600,19.5244007110595700,36.6071014404296900,235.3899993896484400,104.8244018554687500,19.5240306854248050,30.0489406585693360,51,102,68,58,48,13655,2146955291,2147516818,2147272128,2147451931,2147095716,2147116662,2147947181,2147146230,1970,-1,9,27370
1350577555,5807,172.1799926757812500,19.5645008087158200,36.6110000610351560,234.8713073730468800,103.4910964965820300,19.5644702911376950,30.0558490753173830,52,101,68,58,48,13652,2146955172,2147518957,2147272777,2147452553,2147101211,2147137773,2147976329,2147145984,1659,-2,9,12168
1350577622,5806,167.6300048828125000,19.6609992980957030,36.6227989196777340,232.7068939208984400,100.1127014160156200,19.6669597625732420,30.1152801513671880,52,104,69,60,47,13653,2146955072,2147517110,2147270756,2147452196,2147101266,2147167981,2148026267,2147149339,1128,-2,9,7777
1350577677,5806,163.9900054931640600,19.7511005401611330,36.6357994079589840,229.7884979248047000,97.5855636596679700,19.7436408996582030,30.2236595153808600,54,102,69,57,50,13648,2146955346,2147522660,2147275556,2147451218,2147103076,2147189430,2148059318,2147150976,625,-1,9,26194
1350577756,5805,159.2799987792968800,19.8153991699218750,36.6391983032226560,229.4138031005859400,95.4023437500000000,19.8099098205566400,30.2133197784423830,53,103,68,58,47,13651,2146953490,2147521097,2147276900,2147451812,2147105782,2147222134,2148115785,2147157110,3495,-2,9,1674
1350577835,5807,155.3300018310547000,19.8756008148193360,36.6439018249511700,226.1175994873047000,93.5379562377929700,19.8665103912353500,30.3510398864746100,55,104,69,59,47,13650,2146955410,2147523108,2147280457,2147451565,2147121984,2147263012,2148173997,2147161234,2577,-2,9,23903
1350577914,5804,151.4199981689453000,19.9423007965087900,36.6479988098144500,224.3777008056640600,91.2337799072265600,19.9364891052246100,30.4075508117675780,55,105,69,57,48,13649,2146956388,2147526601,2147281865,2147452470,2147134966,2147309056,2148251684,2147166409,1985,-2,9,1943
1350577993,5807,147.5299987792968800,20.0527992248535160,36.6596984863281250,221.5964050292968800,87.9181900024414000,20.0372009277343750,30.5042591094970700,57,102,68,58,48,13648,2146959716,2147524470,2147285769,2147450258,2147148964,2147365705,2148336064,2147170112,1474,-2,8,33798
1350578074,5804,143.5399932861328000,20.1996994018554700,36.6599006652832000,227.9687957763672000,83.2081222534179700,20.1803493499755860,30.1246299743652340,60,103,69,57,49,13646,2146951680,2147531273,2147287186,2147453595,2147168411,2147426267,2148432448,2147179209,1325,-1,9,11869
1350578153,5802,139.8200073242187500,20.2595996856689450,36.6670989990234400,227.9539947509765600,80.9957885742187500,20.2476100921630860,30.0964908599853500,60,108,69,59,49,13643,2146958756,2147531730,2147293778,2147450084,2147184978,2147505718,2148546249,2147183259,1087,-1,9,30854
1350578244,5804,135.5399932861328000,20.3043994903564450,36.6543998718261700,234.2828063964843800,79.3956832885742200,20.2962703704834000,29.7708606719970700,65,105,70,59,50,13640,2146958272,2147536338,2147297398,2147450770,2147207661,2147597074,2148664594,2147194614,1227,-1,9,57721
1350578335,5808,131.6900024414062500,20.3379993438720700,36.6543006896972660,239.2523040771484400,78.2177734375000000,20.3320999145507800,29.5228290557861330,66,106,70,57,47,13638,2146958646,2147538852,2147309394,2147450203,2147246966,2147695030,2148804132,2147204361,720,-1,9,42169
1350578428,5805,128.0700073242187500,20.4064006805419920,36.6542015075683600,241.5747985839843800,76.0628662109375000,20.3976593017578120,29.3886909484863280,67,110,68,57,49,13634,2146959844,2147541869,2147309046,2147451922,2147278290,2147792566,2148929554,2147212553,3390,-1,9,30058
1350578555,5806,124.1999969482421900,20.6033000946044920,36.6691017150878900,243.0632934570312500,69.9386596679687500,20.5840702056884770,29.2425403594970700,77,111,69,59,48,13624,2146962157,2147545609,2147328054,2147448237,2147335305,2147981074,2149207076,2147236580,400,-2,9,58292
1350578762,5804,119.8199996948242200,20.7905998229980470,36.6866989135742200,239.5202026367187500,63.4535217285156250,20.7816390991210940,29.3214302062988280,84,116,70,58,48,13621,2146962057,2147541138,2147305024,2147446976,2147327222,2147785517,2148805741,2147211922,1228,-1,9,64507
1350578865,5804,115.5299987792968800,20.8747005462646500,36.6775016784668000,240.9868011474609400,59.8300018310546900,20.8920993804931640,29.2079105377197270,84,115,69,58,47,13612,2146962258,2147536320,2147297060,2147446637,2147326016,2147682669,2148583140,2147197312,1434,-1,9,3267
1350578956,5806,111.6100006103515600,21.0135002136230470,36.6907997131347660,240.6795043945312500,55.5941696166992200,21.0212993621826170,29.1679096221923830,92,123,69,58,48,13607,2146970624,2147547940,2147314349,2147448393,2147439296,2147976932,2148981851,2147228534,1556,-2,9,5154
1350579047,5803,106.8899993896484400,21.1266994476318360,36.6806983947753900,239.4201049804687500,52.1352806091308600,21.1268596649169920,29.1814002990722660,93,116,71,58,48,13605,2146986825,2147580214,2147374546,2147446976,2147818194,2148931465,2150272777,2147326244,1028,-1,9,46723
1350579114,5807,102.8300018310546900,21.2220993041992200,36.6716995239257800,242.6172943115234400,48.9683799743652340,21.2235507965087900,28.9958992004394530,105,120,70,58,47,13595,2146997494,2147609618,2147428608,2147453586,2148146678,2149658358,2151215305,2147401938,657,-1,9,5933
1350579181,5806,99.1699981689453100,21.3451004028320300,36.6772003173828100,243.7525024414062500,45.0087089538574200,21.3445205688476560,28.8947696685791000,106,118,70,58,48,13589,2146990299,2147589933,2147383542,2147448201,2148046354,2149147392,2150335835,2147346706,862,-1,9,18861
1350579236,5806,96.6399993896484400,21.5363998413085940,36.6866989135742200,243.2512054443359400,39.5127410888671900,21.5125408172607420,28.8476295471191400,121,132,70,58,47,13572,2147012891,2147626038,2147456292,2147452608,2148572955,2150292443,2151822454,2147475264,787,-1,9,8901
1350579291,5807,94.6100006103515600,21.6772003173828120,36.6885986328125000,240.1361999511718800,34.1920394897460940,21.6753292083740230,28.9210395812988280,133,127,70,58,47,13558,2147026075,2147656192,2147505819,2147454802,2148863186,2150839232,2152521901,2147535076,731,-2,9,9783
1350579348,5808,93.0100021362304700,21.7751998901367200,36.6837997436523440,241.4394073486328000,30.5770797729492200,21.7860202789306640,28.8165092468261720,135,126,70,58,48,13557,2147017856,2147626806,2147454125,2147450861,2148596443,2150061979,2151371465,2147450048,485,-2,9,28551
1350579427,5808,91.2900009155273400,21.9691009521484380,36.7038002014160160,237.8842926025390600,25.3124294281005860,21.9473304748535160,28.9118194580078120,152,135,71,58,48,13540,2147041298,2147668068,2147524086,2147457298,2149225947,2151292955,2152950299,2147587830,386,-1,9,10083
1350579542,5807,89.6999969482421900,22.1028003692626950,36.7013015747070300,233.8845062255859400,20.8553104400634770,22.0840091705322270,29.0407104492187500,162,134,71,59,48,13521,2147050624,2147677001,2147530486,2147456530,2149374555,2151471122,2153184329,2147615588,129,-2,9,60936
1350579716,5807,86.7900009155273400,22.3360996246337900,36.6959991455078100,231.2236022949218800,12.1518402099609380,22.3512096405029300,29.0556602478027340,171,140,70,59,48,13493,2147079524,2147720594,2147604068,2147458550,2150038409,2152383844,2154228882,2147732690,307,-2,9,32175
1350579771,5802,84.8700027465820300,22.5193996429443360,36.6907005310058600,231.3719940185547000,7.3708620071411130,22.4981594085693360,28.9880104064941400,177,139,71,59,47,13471,2147091428,2147731072,2147577234,2147453403,2150440237,2152937965,2154793316,2147796059,2976,-1,9,28706
1350579826,5805,83.1500015258789000,22.5869998931884770,36.6936988830566400,231.9519958496093800,5.0284180641174320,22.5701999664306640,28.9312305450439450,196,147,71,59,47,13438,2147109394,2147754633,2147601993,2147453339,2150905545,2153618541,2155536822,2147876050,2240,-2,9,14976
1350579905,5809,81.3099975585937500,22.6555004119873050,36.6892013549804700,232.4116058349609400,2.7730109691619873,22.6396007537841800,28.8810997009277340,205,143,71,60,48,13395,2147140022,2147795337,2147661056,2147460955,2151543131,2154434880,2156403254,2147986313,1761,-2,9,48890
1350579996,5808,79.0999984741211000,22.8948001861572270,36.6691017150878900,235.9971923828125000,-4.7580599784851070,22.8715305328369140,28.6201705932617200,170,145,72,60,47,13426,2147201700,2147873225,2147754176,2147463451,2152787812,2156066386,2157953481,2148170386,1664,-2,9,33746
1350580063,5806,77.0999984741211000,23.0445995330810550,36.6659011840820300,248.6354980468750000,-9.5976495742797850,23.0207500457763670,27.9976902008056640,115,132,71,59,48,13517,2147275565,2147967908,2147911478,2147475456,2154027748,2157690880,2159395556,2148340800,1102,-2,9,6011
1350580130,5805,75.2900009155273400,23.0690002441406250,36.6246986389160160,258.4072875976562500,-10.8148002624511720,23.0583000183105470,27.5709095001220700,86,124,72,59,48,13512,2147341202,2148057819,2148011867,2147486793,2155271296,2159399890,2160753261,2148478345,381,-1,9,55523
1350580221,5808,73.6299972534179700,23.2593002319335940,36.6111984252929700,261.8374023437500000,-16.4145202636718750,23.2311801910400400,27.3624401092529300,83,127,71,58,48,13525,2147365888,2148065590,2147907584,2147472896,2156151122,2160567908,2161580388,2148551936,2778,-1,9,24227
1350580348,5803,71.3499984741211000,23.6147003173828120,36.6063003540039060,262.4077148437500000,-27.5115795135498050,23.5743408203125000,27.2042598724365230,83,127,71,59,47,13520,2147475282,2148205869,2148020525,2147477714,2158872182,2164125165,2164387565,2148833142,2399,-1,9,31532
1350580403,5806,69.9899978637695300,23.6825008392334000,36.5989990234375000,261.1588134765625000,-29.6188697814941400,23.6395893096923830,27.2291908264160160,82,124,70,58,48,13528,2147532891,2148266075,2148076818,2147475876,2160195666,2165847853,2165701824,2148984274,2552,-1,9,12973
1350580482,5805,68.4899978637695300,23.8341999053955080,36.5947990417480500,257.2067871093750000,-34.1521110534668000,23.7800598144531250,27.3352298736572270,84,124,71,59,48,13526,2147578898,2148326372,2148125238,2147482276,2161320914,2167228836,2166789211,2149102738,2351,-2,9,11023
1350580644,5804,66.0400009155273400,24.1119003295898440,36.5848007202148440,254.0384063720703000,-44.4309196472168000,24.0990695953369140,27.3411998748779300,80,123,69,58,46,13529,2147723675,2148493257,2148290825,2147489801,2164580562,2171340653,2170150217,2149479360,2022,-2,9,2245
1350580711,5804,64.0999984741211000,24.1839008331298830,36.5868988037109400,255.7601928710937500,-46.3467292785644500,24.1586093902587900,27.2465591430664060,79,128,69,59,48,13524,2147821814,2148600374,2148380608,2147494253,2166655296,2173813686,2172042980,2149717888,2043,-1,9,37652
1350580790,5808,62.2799987792968750,24.2436008453369140,36.5668983459472660,256.1820983886719000,-48.8490905761718750,24.2364101409912100,27.1986904144287100,80,121,69,58,48,13523,2147916269,2148684416,2148437613,2147499355,2168634139,2176154450,2173654107,2149890285,2736,-1,9,4524
1350580916,5804,59.4199981689453100,24.5482997894287100,36.5401000976562500,259.6633911132812500,-58.2180786132812500,24.5281105041503900,26.9431896209716800,73,124,70,59,47,13527,2148174336,2148942436,2148673106,2147519798,2173796352,2181975030,2177832969,2150397750,3257,-1,9,24920
1350580971,5805,58.1599998474121100,24.7399005889892580,36.5233001708984400,260.7249145507812500,-61.7068595886230500,24.6368904113769530,26.8581008911132800,73,127,71,59,47,13526,2148302902,2149084178,2148810752,2147534326,2176756589,2185292553,2180205458,2150648356,3424,-2,9,45673
1350581241,5804,56.1699981689453100,25.5932998657226560,36.4328002929687500,254.2214050292968800,-91.2561035156250000,25.5618801116943360,26.7663593292236330,73,126,72,60,49,13514,2148566363,2149334948,2148926345,2147527122,2183109485,2192227913,2184814043,2151181238,2442,-3,8,23016
1350581886,5806,54.8699989318847660,26.1912002563476560,36.3488998413085940,239.6110992431640600,-111.0166015625000000,26.1843109130859380,27.1473903656005860,74,131,71,59,47,13510,2148642121,2149440064,2149043318,2147531995,2183990125,2193010861,2185606610,2151364032,1846,-2,9,3179
1350582304,5808,52.7900009155273440,26.2350997924804700,36.3349990844726560,238.6625976562500000,-112.7645034790039000,26.2395191192626950,27.1677608489990230,66,116,70,59,49,13538,2149162011,2149908882,2149352969,2147548333,2194009142,2203048795,2191808420,2152066825,1759,-2,9,53054
1350582364,5808,50.4099998474121100,26.2383995056152340,36.3353996276855500,238.4902954101562500,-112.8861007690429700,26.2433605194091800,27.1739292144775400,65,116,69,58,48,13537,2149572050,2150297389,2149636882,2147571044,2203150582,2212656502,2198191195,2152814372,1723,-2,9,26641
1350582410,5808,48.6300010681152340,26.2395992279052730,36.3347015380859400,238.5160064697265600,-112.9298019409179700,26.2447395324707030,27.1721000671386720,65,116,70,60,48,13538,2149975972,2150699977,2149988992,2147602377,2212385673,2222748726,2205354934,2153654162,1585,-2,9,52541
1350582467,5805,46.4399986267089840,26.2385997772216800,36.3336982727050800,238.5410003662109400,-112.9376983642578100,26.2449893951416000,27.1710205078125000,64,116,70,57,47,13541,2150373778,2151073636,2150318390,2147658358,2222532790,2232908708,2212080603,2154592539,1378,-2,9,36769
1350582512,5805,44.6599998474121100,26.2315006256103500,36.3302001953125000,238.4533996582031200,-112.7830963134765600,26.2401008605957030,27.1768608093261720,63,115,69,59,49,13538,2149174491,2149665472,2148988717,2147561892,2195714331,2198295872,2182932004,2151186733,1252,-2,9,16908
1350582568,5806,42.1500015258789060,26.2310009002685550,36.3292007446289060,238.4248962402343800,-112.6973037719726600,26.2373905181884770,27.1790790557861330,61,115,70,58,48,13533,2149042870,2149499492,2148886692,2147590491,2193389906,2194476644,2179346907,2150828992,924,-1,9,40333
1350582601,5807,40.2799987792968750,26.2364006042480470,36.3288002014160160,238.6259002685547000,-112.7357025146484400,26.2386093139648440,27.1698799133300780,62,117,69,59,48,13535,2149431469,2149881682,2149221942,2147663744,2202668708,2204303204,2186105042,2151773942,694,-2,9,12634
1350582634,5806,38.3199996948242200,26.2304992675781250,36.3246994018554700,238.6909027099609400,-112.6399993896484400,26.2355804443359380,27.1680698394775400,62,116,69,58,49,13539,2149539949,2149937536,2149223241,2147664475,2206099492,2207030646,2187336502,2152055003,533,-2,9,27730